Location: Il Ritiro
(43.4167°N, 13.1333°E)
Time: 01:37:51
(UTC+00:00)

Cosmos 1980 - Pass Details

Date: 05 July 2020
Orbit: 839 x 847 km, 71.0° (Epoch: 11 August)

Event Time Altitude Azimuth Distance (km) Brightness Sun altitude
Exits shadow 21:56:26 29° 214° (SSW) 1,485 4.6 -21.7°
Maximum altitude 21:59:23 77° 295° (WNW) 865 3.7 -21.8°
Drops below altitude 10° 22:05:03 10° 22° (NNE) 2,464 6.8 -22.1°
Sets 22:07:31 0° 24° (NNE) 3,403 7.6 -22.3°
